Location: Unspecified
(0.0000°N, 0.0000°E)
Time: 17:46:12
(UTC+00:00)

Vanguard 3 - Pass Details

Date: 04 February 2023
Orbit: 509 x 3249 km, 33.3° (Epoch: 20 March)

Event Time Altitude Azimuth Distance (km) Brightness Sun altitude
Rises 22:26:39 0° 324° (NW) 5,870 11.6 -59.0°
Enters shadow 22:28:59 - 330° (NNW) 5,550 11.4 -59.5°
Reaches altitude 10° 22:31:25 10° 337° (NNW) 5,265 - -60.0°
Maximum altitude 22:44:15 25° 28° (NNE) 4,794 - -62.7°
Drops below altitude 10° 22:59:00 10° 76° (ENE) 6,155 - -65.5°
Sets 23:05:09 0° 88° (E) 7,031 - -66.6°
